When you browse on this site, cookies collect data to enhance your experience and personalize the content and advertising you see.
Visit our Privacy Policy to learn more. By continuing to use the site, you agree to this use of cookies and data.
  • In Hungary
  • List of Countries
  • For 7 days
  • Water Temperature
  • Satellite Maps
  • Weather Map
  • News
  • Weather Widgets
  • user-avatar
    Login

    Hourly Weather Cholet

    Today, 19 March, Tuesday

    Time Temperature Precipitation Wind Pressure Humidity
    00:00 +4°C° 0 mm 1 mps 758 mmHg 95%
    01:00 +4°C° 0 mm 1 mps 758 mmHg 96%
    02:00 +4°C° 0 mm 1 mps 758 mmHg 96%
    03:00 +3°C° 0 mm 1 mps 758 mmHg 96%
    04:00 +3°C° 0 mm 1 mps 759 mmHg 96%
    05:00 +3°C° 0 mm 1 mps 759 mmHg 96%
    06:00 +3°C° 0 mm 1 mps 759 mmHg 96%
    07:00 +4°C° 0 mm 1 mps 759 mmHg 92%
    08:00 +6°C° 0 mm 1 mps 760 mmHg 89%
    09:00 +8°C° 0 mm 1 mps 760 mmHg 85%
    10:00 +9°C° 0 mm 1 mps 760 mmHg 80%
    11:00 +10°C° 0 mm 1 mps 761 mmHg 75%
    12:00 +12°C° 0 mm 1 mps 761 mmHg 69%
    13:00 +12°C° 0.1 mm 1 mps 761 mmHg 69%
    14:00 +12°C° 0.1 mm 2 mps 760 mmHg 69%
    15:00 +12°C° 0.1 mm 2 mps 760 mmHg 68%
    16:00 +10°C° 0 mm 2 mps 761 mmHg 73%
    17:00 +9°C° 0 mm 2 mps 761 mmHg 78%
    18:00 +8°C° 0 mm 2 mps 761 mmHg 84%
    19:00 +8°C° 0 mm 1 mps 761 mmHg 85%
    20:00 +7°C° 0 mm 1 mps 762 mmHg 87%
    21:00 +6°C° 0 mm 1 mps 763 mmHg 89%
    22:00 +6°C° 0 mm 1 mps 763 mmHg 90%
    23:00 +6°C° 0 mm 1 mps 763 mmHg 90%

    Tomorrow, 20 March, Wednesday

    Time Temperature Precipitation Wind Pressure Humidity
    00:00 +5°C° 0 mm 1 mps 763 mmHg 91%
    01:00 +5°C° 0 mm 1 mps 763 mmHg 91%
    02:00 +5°C° 0 mm 1 mps 763 mmHg 92%
    03:00 +4°C° 0 mm 0 mps 763 mmHg 92%
    04:00 +4°C° 0 mm 0 mps 763 mmHg 93%
    05:00 +5°C° 0 mm 1 mps 763 mmHg 93%
    06:00 +5°C° 0 mm 1 mps 763 mmHg 93%
    07:00 +7°C° 0 mm 1 mps 764 mmHg 90%
    08:00 +8°C° 0 mm 1 mps 764 mmHg 87%
    09:00 +10°C° 0 mm 1 mps 764 mmHg 84%
    10:00 +11°C° 0 mm 1 mps 764 mmHg 80%
    11:00 +12°C° 0 mm 1 mps 764 mmHg 76%
    12:00 +13°C° 0 mm 2 mps 764 mmHg 72%
    13:00 +14°C° 0.1 mm 2 mps 764 mmHg 71%
    14:00 +14°C° 0.1 mm 2 mps 764 mmHg 70%
    15:00 +14°C° 0.1 mm 2 mps 763 mmHg 70%
    16:00 +13°C° 0 mm 2 mps 763 mmHg 74%
    17:00 +12°C° 0 mm 2 mps 763 mmHg 79%
    18:00 +10°C° 0 mm 2 mps 763 mmHg 84%
    19:00 +9°C° 0 mm 2 mps 763 mmHg 85%
    20:00 +8°C° 0 mm 2 mps 764 mmHg 87%
    21:00 +7°C° 0 mm 2 mps 764 mmHg 89%
    22:00 +6°C° 0 mm 2 mps 764 mmHg 89%
    23:00 +6°C° 0 mm 2 mps 764 mmHg 89%

    Day after tomorrow, 21 March, Thursday

    Time Temperature Precipitation Wind Pressure Humidity
    00:00 +5°C° 0 mm 2 mps 764 mmHg 90%
    01:00 +5°C° 0 mm 2 mps 764 mmHg 89%
    02:00 +4°C° 0 mm 2 mps 764 mmHg 89%
    03:00 +4°C° 0 mm 2 mps 763 mmHg 89%
    04:00 +4°C° 0 mm 2 mps 763 mmHg 90%
    05:00 +4°C° 0 mm 2 mps 763 mmHg 90%
    06:00 +3°C° 0 mm 2 mps 763 mmHg 91%
    07:00 +4°C° 0 mm 3 mps 763 mmHg 86%
    08:00 +7°C° 0 mm 3 mps 764 mmHg 81%
    09:00 +9°C° 0 mm 3 mps 764 mmHg 76%
    10:00 +10°C° 0 mm 3 mps 764 mmHg 71%
    11:00 +12°C° 0 mm 4 mps 763 mmHg 66%
    12:00 +13°C° 0 mm 4 mps 763 mmHg 61%
    13:00 +13°C° 0 mm 4 mps 763 mmHg 61%
    14:00 +14°C° 0 mm 4 mps 762 mmHg 61%
    15:00 +14°C° 0 mm 4 mps 762 mmHg 60%
    16:00 +13°C° 0 mm 3 mps 762 mmHg 67%
    17:00 +12°C° 0 mm 3 mps 762 mmHg 73%
    18:00 +10°C° 0 mm 2 mps 761 mmHg 79%
    19:00 +9°C° 0 mm 2 mps 762 mmHg 81%
    20:00 +8°C° 0 mm 2 mps 762 mmHg 82%
    21:00 +7°C° 0 mm 2 mps 762 mmHg 84%
    22:00 +6°C° 0 mm 2 mps 762 mmHg 84%
    23:00 +6°C° 0 mm 2 mps 762 mmHg 83%

    22 March, Friday

    Time Temperature Precipitation Wind Pressure Humidity
    00:00 +5°C° 0 mm 2 mps 762 mmHg 83%
    01:00 +5°C° 0 mm 2 mps 761 mmHg 84%
    02:00 +4°C° 0 mm 2 mps 761 mmHg 85%
    03:00 +4°C° 0 mm 2 mps 761 mmHg 86%
    04:00 +4°C° 0 mm 2 mps 761 mmHg 88%
    05:00 +3°C° 0 mm 2 mps 761 mmHg 89%
    06:00 +3°C° 0 mm 2 mps 761 mmHg 90%
    07:00 +5°C° 0 mm 2 mps 761 mmHg 85%
    08:00 +7°C° 0 mm 2 mps 761 mmHg 81%
    09:00 +9°C° 0 mm 2 mps 761 mmHg 76%
    10:00 +12°C° 0 mm 2 mps 761 mmHg 71%
    11:00 +13°C° 0 mm 1 mps 761 mmHg 66%
    12:00 +15°C° 0 mm 1 mps 761 mmHg 61%
    13:00 +15°C° 0 mm 1 mps 760 mmHg 59%
    14:00 +16°C° 0 mm 1 mps 760 mmHg 58%
    15:00 +16°C° 0 mm 1 mps 760 mmHg 57%
    16:00 +15°C° 0 mm 1 mps 760 mmHg 63%
    17:00 +13°C° 0 mm 1 mps 760 mmHg 69%
    18:00 +12°C° 0 mm 1 mps 759 mmHg 74%
    19:00 +10°C° 0 mm 1 mps 760 mmHg 78%
    20:00 +9°C° 0 mm 1 mps 760 mmHg 82%
    21:00 +8°C° 0 mm 1 mps 760 mmHg 86%
    22:00 +7°C° 0 mm 0 mps 760 mmHg 86%
    23:00 +6°C° 0 mm 0 mps 760 mmHg 87%

    23 March, Saturday

    Time Temperature Precipitation Wind Pressure Humidity
    00:00 +6°C° 0 mm 0 mps 760 mmHg 87%
    01:00 +6°C° 0 mm 0 mps 760 mmHg 87%
    02:00 +7°C° 0 mm 1 mps 759 mmHg 87%
    03:00 +7°C° 0 mm 1 mps 759 mmHg 87%
    04:00 +6°C° 0 mm 1 mps 759 mmHg 87%
    05:00 +6°C° 0 mm 1 mps 759 mmHg 87%
    06:00 +6°C° 0 mm 1 mps 759 mmHg 87%
    07:00 +8°C° 0 mm 1 mps 759 mmHg 82%
    08:00 +10°C° 0 mm 1 mps 759 mmHg 77%
    09:00 +13°C° 0 mm 1 mps 760 mmHg 71%
    10:00 +14°C° 0 mm 1 mps 759 mmHg 66%
    11:00 +16°C° 0 mm 1 mps 759 mmHg 62%
    12:00 +17°C° 0 mm 0 mps 759 mmHg 57%
    13:00 +19°C° 0 mm 1 mps 759 mmHg 56%
    14:00 +19°C° 0 mm 1 mps 758 mmHg 55%
    15:00 +19°C° 0 mm 1 mps 758 mmHg 54%
    16:00 +18°C° 0 mm 1 mps 758 mmHg 60%
    17:00 +15°C° 0 mm 1 mps 758 mmHg 66%
    18:00 +14°C° 0 mm 1 mps 758 mmHg 72%
    19:00 +12°C° 0 mm 1 mps 758 mmHg 76%
    20:00 +11°C° 0 mm 1 mps 758 mmHg 80%
    21:00 +10°C° 0 mm 1 mps 759 mmHg 84%
    22:00 +10°C° 0 mm 1 mps 759 mmHg 85%
    23:00 +9°C° 0 mm 1 mps 759 mmHg 86%

    24 March, Sunday

    Time Temperature Precipitation Wind Pressure Humidity
    00:00 +9°C° 0 mm 1 mps 759 mmHg 87%
    01:00 +8°C° 0 mm 1 mps 758 mmHg 87%
    02:00 +8°C° 0 mm 1 mps 758 mmHg 88%
    03:00 +7°C° 0 mm 2 mps 758 mmHg 89%
    04:00 +6°C° 0 mm 2 mps 758 mmHg 89%
    05:00 +6°C° 0 mm 2 mps 759 mmHg 90%
    06:00 +6°C° 0 mm 2 mps 759 mmHg 91%
    07:00 +8°C° 0 mm 2 mps 759 mmHg 87%
    08:00 +10°C° 0 mm 2 mps 759 mmHg 84%
    09:00 +11°C° 0 mm 3 mps 760 mmHg 80%
    10:00 +13°C° 0 mm 3 mps 760 mmHg 75%
    11:00 +14°C° 0 mm 3 mps 759 mmHg 71%
    12:00 +17°C° 0 mm 3 mps 759 mmHg 66%
    13:00 +17°C° 0 mm 3 mps 759 mmHg 66%
    14:00 +17°C° 0 mm 3 mps 759 mmHg 66%
    15:00 +17°C° 0 mm 4 mps 759 mmHg 66%
    16:00 +15°C° 0 mm 4 mps 759 mmHg 72%
    17:00 +14°C° 0 mm 3 mps 759 mmHg 77%
    18:00 +12°C° 0 mm 3 mps 759 mmHg 82%
    19:00 +11°C° 0 mm 4 mps 759 mmHg 84%
    20:00 +10°C° 0 mm 4 mps 760 mmHg 86%
    21:00 +8°C° 0 mm 5 mps 760 mmHg 87%
    22:00 +7°C° 0 mm 5 mps 760 mmHg 90%
    23:00 +7°C° 0 mm 5 mps 760 mmHg 93%
    Show more